Terminal Aerodrome Forecast
Issued by NWS

Home | Current Version | Previous Version | Text Only | Print | Product List | Glossary On
Versions: 1 2 3 4 5 6 7 8 9 10 11 12 13 14 15 16 17 18 19 20 21 22 23 24 25 26 27 28 29
000
FTUS46 KOTX 181120
TAFCOE
TAF
KCOE 181120Z 1812/1912 17005KT P6SM SCT100 BKN150
     FM181900 22015G24KT P6SM SCT090 BKN120
     FM190300 20010KT P6SM SCT100 BKN120
      AMD LTD TO CLD AND VIS=

USA.gov is the U.S. government's official web portal to all federal, state and local government web resources and services.